Location: Buchloe
(48.0161°N, 10.7316°E)
Time: 19:37:38
(UTC+02:00)

ISS - Visible Passes

Search period start: 27 May 2018 00:00
Search period end: 06 June 2018 00:00
Orbit: 402 x 407 km, 51.6° (Epoch: 27 May)

Date Brightness Start Highest point End Pass type
(mag) Time Alt. Az. Time Alt. Az. Time Alt. Az.
27 May -3.1 00:22:01 10° WNW 00:25:15 54° NNE 00:26:26 33° ENE visible
27 May -1.3 01:58:36 10° WNW 01:59:02 13° WNW 01:59:02 13° WNW visible
27 May -2.9 21:52:55 10° W 21:56:08 51° NNW 21:59:20 10° ENE visible
27 May -2.8 23:29:48 10° WNW 23:32:57 45° N 23:35:43 13° E visible
28 May -2.6 01:06:20 10° WNW 01:08:21 34° W 01:08:21 34° W visible
28 May -2.6 22:37:31 10° WNW 22:40:39 42° N 22:43:47 10° ENE visible
29 May -3.9 00:14:06 10° WNW 00:17:23 81° NNE 00:17:42 69° E visible
29 May -2.6 21:45:10 10° WNW 21:48:18 42° N 21:51:27 10° ENE visible
29 May -3.3 23:21:53 10° WNW 23:25:07 59° NNE 23:27:06 21° E visible
30 May -1.8 00:58:29 10° WNW 00:59:44 19° W 00:59:44 19° W visible
30 May -2.9 22:29:37 10° WNW 22:32:48 47° N 22:36:00 10° E visible
31 May -3.7 00:06:08 10° WNW 00:09:09 55° SW 00:09:09 55° SW visible
31 May -3.9 23:13:52 10° WNW 23:17:09 88° SSW 23:18:36 31° ESE visible
01 Jun -1.2 00:50:57 10° W 00:51:13 11° W 00:51:13 11° W visible
01 Jun -3.5 22:21:36 10° WNW 22:24:52 65° NNE 22:28:03 10° E visible
01 Jun -2.5 23:58:17 10° W 00:00:41 28° SW 00:00:41 28° SW visible
02 Jun -3.5 23:05:52 10° WNW 23:09:02 48° SSW 23:10:11 31° SSE visible
03 Jun -3.9 22:13:31 10° WNW 22:16:48 77° SSW 22:19:41 13° ESE visible
03 Jun -1.6 23:50:52 10° W 23:52:20 15° SW 23:52:20 15° SW visible
04 Jun -2.4 22:58:00 10° W 23:00:45 25° SW 23:01:52 20° S visible
05 Jun -3.1 22:05:28 10° WNW 22:08:34 40° SSW 22:11:26 11° SE visible
